• In United Kingdom
  • List of Countries
  • For 7 days
  • Water Temperature
  • Satellite Maps
  • Weather Map
  • Weather Widgets
  • user-avatar
    Login

    Hourly Weather Hermosillo

    Today, 20 September, Wednesday

    Time Temperature Precipitation Wind Pressure Humidity
    00:00 +32°C° 0 mm 2 mps 739 mmHg 58%
    01:00 +31°C° 0 mm 2 mps 739 mmHg 59%
    02:00 +31°C° 0 mm 2 mps 739 mmHg 61%
    03:00 +30°C° 0 mm 1 mps 739 mmHg 63%
    04:00 +30°C° 0 mm 1 mps 739 mmHg 65%
    05:00 +29°C° 0 mm 1 mps 739 mmHg 66%
    06:00 +30°C° 0 mm 1 mps 740 mmHg 63%
    07:00 +31°C° 0 mm 1 mps 740 mmHg 60%
    08:00 +32°C° 0 mm 1 mps 740 mmHg 56%
    09:00 +34°C° 0 mm 2 mps 740 mmHg 51%
    10:00 +35°C° 0 mm 2 mps 740 mmHg 47%
    11:00 +36°C° 0 mm 2 mps 740 mmHg 42%
    12:00 +37°C° 0 mm 3 mps 740 mmHg 39%
    13:00 +38°C° 0 mm 3 mps 739 mmHg 37%
    14:00 +40°C° 0 mm 4 mps 739 mmHg 34%
    15:00 +40°C° 0 mm 4 mps 738 mmHg 34%
    16:00 +39°C° 0 mm 5 mps 738 mmHg 35%
    17:00 +39°C° 0 mm 5 mps 737 mmHg 35%
    18:00 +37°C° 0 mm 5 mps 738 mmHg 37%
    19:00 +36°C° 0 mm 4 mps 738 mmHg 40%
    20:00 +35°C° 0 mm 3 mps 738 mmHg 42%
    21:00 +34°C° 0 mm 3 mps 738 mmHg 44%
    22:00 +32°C° 0 mm 2 mps 739 mmHg 46%
    23:00 +32°C° 0 mm 2 mps 739 mmHg 47%

    Tomorrow, 21 September, Thursday

    Time Temperature Precipitation Wind Pressure Humidity
    00:00 +31°C° 0 mm 2 mps 739 mmHg 49%
    01:00 +31°C° 0 mm 1 mps 738 mmHg 50%
    02:00 +30°C° 0 mm 1 mps 738 mmHg 52%
    03:00 +30°C° 0 mm 1 mps 738 mmHg 54%
    04:00 +29°C° 0 mm 1 mps 738 mmHg 56%
    05:00 +29°C° 0 mm 1 mps 738 mmHg 58%
    06:00 +30°C° 0 mm 1 mps 738 mmHg 54%
    07:00 +30°C° 0 mm 1 mps 738 mmHg 50%
    08:00 +31°C° 0 mm 1 mps 739 mmHg 47%
    09:00 +34°C° 0 mm 2 mps 739 mmHg 41%
    10:00 +35°C° 0 mm 3 mps 739 mmHg 36%
    11:00 +37°C° 0 mm 3 mps 739 mmHg 31%
    12:00 +37°C° 0 mm 4 mps 738 mmHg 29%
    13:00 +38°C° 0 mm 4 mps 737 mmHg 28%
    14:00 +40°C° 0 mm 5 mps 737 mmHg 26%
    15:00 +39°C° 0 mm 5 mps 737 mmHg 27%
    16:00 +39°C° 0 mm 5 mps 736 mmHg 27%
    17:00 +38°C° 0 mm 6 mps 736 mmHg 28%
    18:00 +36°C° 0 mm 5 mps 736 mmHg 29%
    19:00 +35°C° 0 mm 4 mps 736 mmHg 31%
    20:00 +33°C° 0 mm 3 mps 737 mmHg 32%
    21:00 +31°C° 0 mm 3 mps 737 mmHg 34%
    22:00 +31°C° 0 mm 2 mps 737 mmHg 36%
    23:00 +30°C° 0 mm 2 mps 737 mmHg 38%

    Day after tomorrow, 22 September, Friday

    Time Temperature Precipitation Wind Pressure Humidity
    00:00 +29°C° 0 mm 2 mps 737 mmHg 41%
    01:00 +29°C° 0 mm 2 mps 736 mmHg 44%
    02:00 +28°C° 0 mm 2 mps 736 mmHg 46%
    03:00 +28°C° 0 mm 2 mps 736 mmHg 49%
    04:00 +27°C° 0 mm 2 mps 736 mmHg 52%
    05:00 +27°C° 0 mm 1 mps 736 mmHg 54%
    06:00 +27°C° 0 mm 2 mps 736 mmHg 52%
    07:00 +28°C° 0 mm 2 mps 737 mmHg 49%
    08:00 +29°C° 0 mm 2 mps 737 mmHg 47%
    09:00 +31°C° 0 mm 3 mps 737 mmHg 42%
    10:00 +33°C° 0 mm 4 mps 737 mmHg 38%
    11:00 +35°C° 0 mm 4 mps 737 mmHg 33%
    12:00 +35°C° 0 mm 5 mps 737 mmHg 32%
    13:00 +36°C° 0 mm 5 mps 736 mmHg 31%
    14:00 +38°C° 0 mm 6 mps 736 mmHg 30%
    15:00 +36°C° 0 mm 6 mps 735 mmHg 30%
    16:00 +35°C° 0 mm 6 mps 735 mmHg 31%
    17:00 +35°C° 0 mm 6 mps 735 mmHg 32%
    18:00 +33°C° 0 mm 5 mps 735 mmHg 32%
    19:00 +32°C° 0 mm 4 mps 736 mmHg 33%
    20:00 +30°C° 0 mm 4 mps 736 mmHg 34%
    21:00 +29°C° 0 mm 3 mps 736 mmHg 35%
    22:00 +29°C° 0 mm 2 mps 736 mmHg 36%
    23:00 +28°C° 0 mm 2 mps 736 mmHg 36%

    23 September, Saturday

    Time Temperature Precipitation Wind Pressure Humidity
    00:00 +27°C° 0 mm 2 mps 736 mmHg 38%
    01:00 +27°C° 0 mm 1 mps 736 mmHg 39%
    02:00 +26°C° 0 mm 1 mps 736 mmHg 41%
    03:00 +26°C° 0 mm 1 mps 736 mmHg 42%
    04:00 +25°C° 0 mm 1 mps 736 mmHg 43%
    05:00 +25°C° 0 mm 1 mps 736 mmHg 44%
    06:00 +26°C° 0 mm 1 mps 736 mmHg 41%
    07:00 +27°C° 0 mm 1 mps 736 mmHg 38%
    08:00 +28°C° 0 mm 1 mps 737 mmHg 34%
    09:00 +29°C° 0 mm 1 mps 737 mmHg 31%
    10:00 +30°C° 0 mm 1 mps 737 mmHg 28%
    11:00 +32°C° 0 mm 2 mps 737 mmHg 26%
    12:00 +34°C° 0 mm 3 mps 736 mmHg 24%
    13:00 +34°C° 0 mm 3 mps 736 mmHg 22%
    14:00 +35°C° 0 mm 4 mps 735 mmHg 20%
    15:00 +35°C° 0 mm 5 mps 735 mmHg 21%
    16:00 +35°C° 0 mm 5 mps 735 mmHg 22%
    17:00 +34°C° 0 mm 5 mps 735 mmHg 23%
    18:00 +33°C° 0 mm 5 mps 735 mmHg 26%
    19:00 +30°C° 0 mm 5 mps 735 mmHg 28%
    20:00 +29°C° 0 mm 4 mps 736 mmHg 31%
    21:00 +28°C° 0 mm 4 mps 736 mmHg 32%
    22:00 +27°C° 0 mm 3 mps 736 mmHg 32%
    23:00 +26°C° 0 mm 2 mps 736 mmHg 33%

    24 September, Sunday

    Time Temperature Precipitation Wind Pressure Humidity
    00:00 +26°C° 0 mm 2 mps 736 mmHg 34%
    01:00 +25°C° 0 mm 2 mps 735 mmHg 35%
    02:00 +24°C° 0 mm 2 mps 735 mmHg 36%
    03:00 +24°C° 0 mm 1 mps 735 mmHg 38%
    04:00 +23°C° 0 mm 1 mps 735 mmHg 41%
    05:00 +23°C° 0 mm 1 mps 735 mmHg 43%
    06:00 +24°C° 0 mm 1 mps 736 mmHg 40%
    07:00 +25°C° 0 mm 1 mps 736 mmHg 38%
    08:00 +26°C° 0 mm 1 mps 737 mmHg 35%
    09:00 +28°C° 0 mm 1 mps 737 mmHg 31%
    10:00 +30°C° 0 mm 1 mps 737 mmHg 27%
    11:00 +31°C° 0 mm 1 mps 737 mmHg 23%
    12:00 +32°C° 0 mm 2 mps 736 mmHg 20%
    13:00 +34°C° 0 mm 2 mps 736 mmHg 17%
    14:00 +35°C° 0 mm 3 mps 735 mmHg 15%
    15:00 +35°C° 0 mm 3 mps 735 mmHg 15%
    16:00 +35°C° 0 mm 3 mps 735 mmHg 15%
    17:00 +35°C° 0 mm 4 mps 735 mmHg 15%
    18:00 +33°C° 0 mm 4 mps 735 mmHg 17%
    19:00 +32°C° 0 mm 4 mps 736 mmHg 20%
    20:00 +29°C° 0 mm 4 mps 736 mmHg 22%
    21:00 +28°C° 0 mm 3 mps 736 mmHg 24%
    22:00 +27°C° 0 mm 3 mps 736 mmHg 26%
    23:00 +26°C° 0 mm 3 mps 736 mmHg 27%

    25 September, Monday

    Time Temperature Precipitation Wind Pressure Humidity
    00:00 +26°C° 0 mm 2 mps 736 mmHg 28%
    01:00 +25°C° 0 mm 2 mps 736 mmHg 29%
    02:00 +24°C° 0 mm 2 mps 736 mmHg 30%
    03:00 +24°C° 0 mm 1 mps 736 mmHg 31%
    04:00 +24°C° 0 mm 1 mps 736 mmHg 31%
    05:00 +23°C° 0 mm 1 mps 736 mmHg 32%
    06:00 +24°C° 0 mm 1 mps 736 mmHg 29%
    07:00 +26°C° 0 mm 1 mps 736 mmHg 27%
    08:00 +27°C° 0 mm 2 mps 737 mmHg 25%
    09:00 +29°C° 0 mm 2 mps 737 mmHg 22%
    10:00 +30°C° 0 mm 2 mps 737 mmHg 20%
    11:00 +32°C° 0 mm 2 mps 737 mmHg 17%
    12:00 +34°C° 0 mm 2 mps 736 mmHg 16%
    13:00 +35°C° 0 mm 2 mps 736 mmHg 14%
    14:00 +36°C° 0 mm 2 mps 735 mmHg 13%
    15:00 +36°C° 0 mm 2 mps 735 mmHg 13%
    16:00 +36°C° 0 mm 2 mps 735 mmHg 12%
    17:00 +36°C° 0 mm 3 mps 735 mmHg 12%
    18:00 +34°C° 0 mm 3 mps 735 mmHg 14%
    19:00 +31°C° 0 mm 3 mps 736 mmHg 16%
    20:00 +29°C° 0 mm 3 mps 736 mmHg 18%
    21:00 +28°C° 0 mm 3 mps 736 mmHg 20%
    22:00 +27°C° 0 mm 2 mps 737 mmHg 22%
    23:00 +27°C° 0 mm 2 mps 737 mmHg 24%
    Show more